Terug naar catalogus

STARLINK-11159

ActiefCommunicatieVLEO
NORAD 60905·PAYLOAD·🇺🇸 United States

Gelanceerd Aug 31, 2024 vanaf Cape Canaveral Space Force Station

Loading…

Volgende Passages (komende 24 uur)

TLE

VersSource: CelesTrak SupGP

Epoch: Sep 14, 2026, 14:29 UTC

1 60905C 24154C   26257.60395833  .00022476  00000+0  18519-3 0  2579
2 60905  53.1571 280.2940 0001014  95.2705 181.9199 15.69691083    10

Volg STARLINK-11159 in realtime met AllMySat

Download on the App Store